Regional Weather Roundup
Issued by NWS Sterling, VA

Home | Current Version | Previous Version | Graphics & Text | Print | Product List | Glossary On
Versions: 1 2 3 4 5 6 7 8 9 10 11 12 13 14 15 16 17 18 19 20 21 22 23 24 25 26 27
000
ASUS41 KLWX 182010
RWRLWX

REGIONAL WEATHER ROUNDUP
NATIONAL WEATHER SERVICE BALTIMORE MD/WASHINGTON DC
400 PM EDT FRI APR 18 2014

Note: "FAIR" indicates few or no clouds below 12,000 feet
with no significant weather and/or obstructions to visibility.
 TC=TEMPERATURE CELSIUS

 * =Non NWS site. Station does not report precipitation (e.g. rain,
    snow, etc.), thunder, or fog.

DCZ001-MDZ009-015-VAZ040>042-051-053>054-182100-
WASHINGTON METRO

CITY           SKY/WX    TMP DP  RH WIND       PRES   REMARKS
WASHINGTON NAT CLOUDY    55  33  43 CALM      30.38F
DULLES         PTSUNNY   55  33  43 VRB3      30.35F
ANDREWS AFB    CLOUDY    51  34  52 NE5       30.36F
FT BELVOIR     CLOUDY    54  32  42 VRB3      30.37F
QUANTICO       PTSUNNY   52  34  50 SW5       30.38F
COLLEGE PARK*  CLOUDY    54  34  47 SE7       30.37F
LEESBURG*      MOSUNNY   55  36  47 S6        30.35F
MANASSAS*      PTSUNNY   55  36  47 CALM      30.36S
GAITHERSBURG*  MOSUNNY   52  34  50 SE6       30.37F

$$

MDZ006>007-011-014-182100-
BALTIMORE METRO

CITY           SKY/WX    TMP DP  RH WIND       PRES   REMARKS
BWI AIRPORT    CLOUDY    50  32  50 NE5       30.37F
MD SCIENCE CTR   N/A     49  32  52 MISG      30.39F
MARTIN STATE   CLOUDY    50  36  57 CALM      30.40F
ANNAPOLIS      PTSUNNY   48  35  60 SE3       30.38F
FORT MEADE*    CLOUDY    50  32  50 E3        30.39F

$$

MDZ012-015-019>023-182100-
MARYLAND EASTERN SHORE

CITY           SKY/WX    TMP DP  RH WIND       PRES   REMARKS
OCEAN CITY     CLOUDY    47  38  71 NE10      30.39F
SALISBURY      PTSUNNY   54  37  52 E5        30.37F
BAY BRIDGE AP* PTSUNNY   46  36  66 NW5       30.38F
CAMBRIDGE*     MOSUNNY   55  37  50 NW3       30.35F
EASTON*        PTSUNNY   55  39  54 E7        30.40F

$$

MDZ017>025-182100-
SOUTHERN MARYLAND

CITY           SKY/WX    TMP DP  RH WIND       PRES   REMARKS
PATUXENT RIVER CLOUDY    50  37  61 E3        30.37F
ST INIGOES     CLOUDY    50  38  63 SW8       30.37F
LEONARDTOWN*   CLOUDY    52  34  50 SE5       30.38F

$$

MDZ003>005-182100-
NORTH CENTRAL MARYLAND

CITY           SKY/WX    TMP DP  RH WIND       PRES   REMARKS
FREDERICK*     SUNNY     57  37  47 VRB5      30.37F
HAGERSTOWN APT MOSUNNY   54  32  43 S7        30.32F
WESTMINSTER*   MOSUNNY   57  34  41 SE5       30.33F

$$

MDZ501>502-182100-
WESTERN MARYLAND

CITY           SKY/WX    TMP DP  RH WIND       PRES   REMARKS
OAKLAND*       PTSUNNY   61  19  20 S6        30.24F
CUMBERLAND*    PTSUNNY   63  32  31 E6        30.30F

$$

VAZ025>031-182100-
SHENANDOAH VALLEY

CITY           SKY/WX    TMP DP  RH WIND       PRES   REMARKS
WINCHESTER*    SUNNY     55  36  47 CALM      30.32F
STAUNTON*      PTSUNNY   58  35  42 S5        30.30F

$$

WVZ021-048>050-054>055-182100-
EASTERN WEST VIRGINIA PANHANDLE

CITY           SKY/WX    TMP DP  RH WIND       PRES   REMARKS
MARTINSBURG    MOSUNNY   55  34  45 SW6       30.33F
PETERSBURG*    MOSUNNY   70  42  36 NW3       30.25F

$$

VAZ036>039-050-182100-
CENTRAL FOOTHILLS

CITY           SKY/WX    TMP DP  RH WIND       PRES   REMARKS
CHARLOTTESVILL CLOUDY    57  36  45 CALM      30.32F
CULPEPER*      MOSUNNY   57  34  41 CALM      30.35F

$$

VAZ055>057-182100-
NORTH AND CENTRAL PIEDMONT

CITY           SKY/WX    TMP DP  RH WIND       PRES   REMARKS
FREDERICKSBRG* PTSUNNY   55  36  47 E6        30.35F
STAFFORD*      PTSUNNY   56  37  49 CALM      30.40F

$$

NCZ024-NYZ072-PAZ021-071-VAZ022-071-182100-
OTHER REGIONAL OBSERVATIONS

CITY           SKY/WX    TMP DP  RH WIND       PRES   REMARKS
NEW YORK CITY  CLOUDY    49  30  48 NE6       30.39F
PHILADELPHIA   CLOUDY    53  30  41 CALM      30.37F
PITTSBURGH     CLOUDY    67  29  24 VRB3      30.22F
ROANOKE        CLOUDY    52  38  58 CALM      30.33F
RICHMOND       CLOUDY    54  33  45 CALM      30.35F
RALEIGH        PTSUNNY   63  40  42 NE10      30.30F

$$

ANZ530>537-182100-
MARINE OBSERVATIONS

STATION/POSITION TIME  TEMP    WIND        PRES
                       AIR SEA DIR/SP/G
                 (UTC) (F)     (DEG/KT/KT) (MB)
THOMAS PT LIGHT  2000   46 53  330/  3/  4 1029.1F
BALT KEY BRIDGE  2000   45     110/  4/  5 1029.1S
COVE POINT       2000   45     360/  6/  7 1028.7F
LEWISETTA        2000   47 53  130/  2/  2 1028.5S
SOLOMONS ISLAND  2000      52                N/A
PINEY POINT      2000          200/  5/  6   N/A

$$




USA.gov is the U.S. government's official web portal to all federal, state and local government web resources and services.